Iowa City, IA

7:26 PM CST on December 10, 2019 (GMT -0600)
Iowa City Municipal

Weather History for KIOW - July, 2019

Change the Weather History Date:

Tuesday, July 30, 2019

  Actual Average Record
Temperature  
Mean Temperature 72 °F 74 °F  
Max Temperature 83 °F 84 °F 101 °F (1955)
Min Temperature 61 °F 65 °F 47 °F (1971)
Degree Days  
Heating Degree Days 0 0  
Month to date heating degree days 0 0  
Since 1 June heating degree days 6 17  
Since 1 July heating degree days 0 0  
Cooling Degree Days 7 9  
Month to date cooling degree days 444 299  
Year to date cooling degree days 688 571  
Since 1 June cooling degree days 642 510  
Growing Degree Days 22 (Base 50)    
Moisture  
Dew Point 56 °F    
Average Humidity 60    
Maximum Humidity 84    
Minimum Humidity 36    
Precipitation  
Precipitation 0.00 in 0.12 in 1.78 in (1958)
Month to date precipitation 1.04 4.82  
Year to date precipitation 24.77 21.52  
Sea Level Pressure  
Sea Level Pressure 30.08 in    
Wind  
Wind Speed 6 mph (NNW)    
Max Wind Speed 14 mph    
Max Gust Speed 19 mph    
Visibility 10 miles    
Events      
T = Trace of Precipitation, MM = Missing Value Source: NWS Daily Summary

Daily Weather History Graph

Daily Weather History Graph

Search for Another Location

Airport or City:

Astronomy

Jul. 30, 2019 Rise Set
Actual Time 5:58 AM CDT 8:26 PM CDT
Civil Twilight 5:26 AM CDT 8:57 PM CDT
Nautical Twilight 4:47 AM CDT 9:36 PM CDT
Astronomical Twilight 4:03 AM CDT 10:20 PM CDT
Moon 4:05 AM CDT (7/30) 7:32 PM CDT (7/30)
Length of Visible Light 15h 30m
Length of Day
14h 27m
Waning Crescent, 3% of the Moon is Illuminated
Jul 30
Waning Crescent
Jul 31
New
Aug 7
First Quarter
Aug 15
Full
Aug 23
Last Quarter

Hourly Weather History & Observations

Time (CDT) Temp. Heat Index Dew Point Humidity Pressure Visibility Wind Dir Wind Speed Gust Speed Precip Events Conditions
12:52 AM 70.0 °F - 61.0 °F 73% 30.01 in 10.0 mi NW 6.9 mph - N/A   Clear
1:52 AM 68.0 °F - 61.0 °F 78% 30.01 in 10.0 mi NNW 8.1 mph - N/A   Clear
2:52 AM 66.0 °F - 60.1 °F 81% 30.01 in 10.0 mi NW 9.2 mph - N/A   Clear
3:52 AM 66.0 °F - 59.0 °F 78% 30.01 in 10.0 mi NNW 8.1 mph - N/A   Clear
4:52 AM 64.0 °F - 59.0 °F 84% 30.03 in 10.0 mi NW 5.8 mph - N/A   Clear
5:52 AM 63.0 °F - 57.9 °F 84% 30.05 in 10.0 mi NW 5.8 mph - N/A   Clear
6:52 AM 63.0 °F - 57.9 °F 84% 30.07 in 10.0 mi NW 3.5 mph - N/A   Scattered Clouds
7:52 AM 66.9 °F - 59.0 °F 76% 30.09 in 10.0 mi NNW 8.1 mph - N/A   Scattered Clouds
8:52 AM 71.1 °F - 57.9 °F 63% 30.09 in 10.0 mi North 9.2 mph - N/A   Partly Cloudy
9:52 AM 73.9 °F - 55.0 °F 52% 30.11 in 10.0 mi NNE 10.4 mph - N/A   Partly Cloudy
10:52 AM 75.0 °F - 54.0 °F 48% 30.12 in 10.0 mi NNE 8.1 mph - N/A   Clear
11:52 AM 77.0 °F - 55.0 °F 47% 30.12 in 10.0 mi NNW 8.1 mph - N/A   Partly Cloudy
12:52 PM 79.0 °F - 54.0 °F 42% 30.12 in 10.0 mi NW 12.7 mph - N/A   Partly Cloudy
1:52 PM 79.0 °F - 54.0 °F 42% 30.10 in 10.0 mi NW 11.5 mph - N/A   Clear
2:52 PM 80.1 °F 79.9 °F 53.1 °F 39% 30.09 in 10.0 mi Variable 4.6 mph - N/A   Clear
3:52 PM 81.0 °F - 52.0 °F 36% 30.08 in 10.0 mi North 8.1 mph - N/A   Clear
5:52 PM 81.0 °F 80.5 °F 54.0 °F 39% 30.06 in 10.0 mi North 5.8 mph - N/A   Clear
6:52 PM 79.0 °F - 53.1 °F 40% 30.06 in 10.0 mi North 5.8 mph - N/A   Clear
7:52 PM 75.9 °F - 51.1 °F 42% 30.07 in 10.0 mi North 6.9 mph - N/A   Clear
8:52 PM 73.0 °F - 53.1 °F 49% 30.09 in 10.0 mi North 5.8 mph - N/A   Clear
9:52 PM 70.0 °F - 55.0 °F 59% 30.11 in 10.0 mi Calm Calm - N/A   Clear
10:52 PM 66.9 °F - 55.0 °F 66% 30.12 in 10.0 mi Calm Calm - N/A   Clear
11:52 PM 63.0 °F - 55.0 °F 75% 30.13 in 10.0 mi Calm Calm - N/A   Clear